Blattenbach Aussen Messungen

Zurück zum Überblick

Zeitpunkt Temperatur Temperatur Kabelsensor Luftfeuchte
21.01.2019 10:21:09 0,2 C 2,4 C 72,0%
21.01.2019 10:14:12 0,0 C 2,4 C 72,0%
21.01.2019 10:07:11 -0,1 C 2,4 C 72,0%
21.01.2019 10:00:09 -0,4 C 2,4 C 73,0%
21.01.2019 09:53:11 -0,7 C 2,4 C 74,0%
21.01.2019 09:46:11 -1,1 C 2,3 C 74,0%
21.01.2019 09:39:10 -1,4 C 2,3 C 74,0%
21.01.2019 09:32:08 -1,5 C 2,3 C 74,0%
21.01.2019 09:25:09 -1,6 C 2,3 C 74,0%
21.01.2019 09:18:10 -1,8 C 2,3 C 74,0%
21.01.2019 09:11:11 -1,9 C 2,3 C 74,0%
21.01.2019 09:04:11 -2,1 C 2,4 C 74,0%
21.01.2019 08:57:12 -2,1 C 2,4 C 74,0%
21.01.2019 08:50:10 -2,0 C 2,4 C 73,0%
21.01.2019 08:43:12 -2,0 C 2,4 C 74,0%
21.01.2019 08:36:09 -1,9 C 2,4 C 73,0%
21.01.2019 08:28:56 -1,8 C 2,4 C 74,0%
21.01.2019 08:21:56 -1,7 C 2,4 C 73,0%
21.01.2019 08:14:58 -1,6 C 2,4 C 73,0%
21.01.2019 08:07:55 -1,4 C 2,5 C 73,0%
21.01.2019 08:00:55 -1,3 C 2,5 C 73,0%
21.01.2019 07:53:54 -1,2 C 2,5 C 73,0%
21.01.2019 07:46:54 -1,0 C 2,5 C 73,0%
21.01.2019 07:39:54 -0,8 C 2,5 C 73,0%
21.01.2019 07:32:54 -0,7 C 2,5 C 73,0%
21.01.2019 07:25:55 -0,7 C 2,5 C 73,0%
21.01.2019 07:18:56 -0,6 C 2,5 C 72,0%
21.01.2019 07:11:56 -0,5 C 2,5 C 73,0%
21.01.2019 07:04:54 -0,4 C 2,5 C 73,0%
21.01.2019 06:57:55 -0,3 C 2,5 C 73,0%
21.01.2019 06:50:56 -0,3 C 2,5 C 73,0%
21.01.2019 06:43:55 -0,4 C 2,5 C 73,0%
21.01.2019 06:36:56 -0,4 C 2,5 C 73,0%
21.01.2019 06:29:56 -0,4 C 2,5 C 72,0%
21.01.2019 06:22:56 -0,4 C 2,5 C 72,0%
21.01.2019 06:15:56 -0,5 C 2,5 C 72,0%
21.01.2019 06:08:55 -0,4 C 2,5 C 73,0%
21.01.2019 06:01:57 -0,4 C 2,6 C 73,0%
21.01.2019 05:54:54 -0,4 C 2,6 C 72,0%
21.01.2019 05:47:54 -0,3 C 2,6 C 72,0%
21.01.2019 05:40:55 -0,2 C 2,6 C 72,0%
21.01.2019 05:33:53 -0,1 C 2,6 C 72,0%
21.01.2019 05:26:57 -0,1 C 2,6 C 72,0%
21.01.2019 05:19:56 0,0 C 2,6 C 72,0%
21.01.2019 05:12:56 0,0 C 2,6 C 71,0%
21.01.2019 05:05:54 0,0 C 2,6 C 71,0%
21.01.2019 04:58:57 0,0 C 2,6 C 71,0%
21.01.2019 04:51:39 0,0 C 2,6 C 71,0%
21.01.2019 04:44:40 0,0 C 2,6 C 71,0%
21.01.2019 04:37:41 0,0 C 2,6 C 71,0%